Weather History for KMAN - October, 2013

Change the Weather History Date:

Friday, October 4, 2013

  Actual Average (KBOI) Record (KBOI)
Temperature  
Mean Temperature 48 °F 58 °F  
Max Temperature 59 °F 71 °F 88 °F (1947)
Min Temperature 37 °F 45 °F 26 °F (1981)
Degree Days  
Heating Degree Days 17 8  
Month to date heating degree days 30  
Since 1 July heating degree days 151  
Cooling Degree Days 0 1  
Month to date cooling degree days 4  
Year to date cooling degree days 938  
Moisture  
Dew Point 30 °F    
Average Humidity 57    
Maximum Humidity 87    
Minimum Humidity 25    
Precipitation  
Precipitation 0.00 in 0.02 in 1.13 in (1923)
Month to date precipitation 0.08  
Year to date precipitation 8.16  
Snow  
Snow 0.00 in 0.00 in 0.00 in (2006)
Month to date snowfall 0.0  
Since 1 July snowfall 0.0  
Snow Depth -    
Sea Level Pressure  
Sea Level Pressure 30.39 in    
Wind  
Wind Speed 9 mph (NW)    
Max Wind Speed 13 mph    
Max Gust Speed 17 mph    
Visibility 10 miles    
Events      
T = Trace of Precipitation, MM = Missing Value Source: NWS Daily Summary

Daily Weather History Graph

Daily Weather History Graph

Search for Another Location

Airport or City:

Trip Planner

Search our weather history database for the weather conditions in past years. The results will help you decide how hot, cold, wet, or windy it might be!

Date:

Astronomy

Oct. 04, 2013 Rise Set
Actual Time 7:47 AM MDT 7:21 PM MDT
Civil Twilight 7:18 AM MDT 7:49 PM MDT
Nautical Twilight 6:45 AM MDT 8:22 PM MDT
Astronomical Twilight 6:12 AM MDT 8:56 PM MDT
Moon 7:28 AM MDT (10/4) 7:04 PM MDT (10/4)
Length of Visible Light 12h 30m
Length of Day
11h 33m
Waning Crescent, 0% of the Moon is Illuminated
Oct 4
Waning Crescent
Oct 4
New
Oct 11
First Quarter
Oct 18
Full
Oct 26
Last Quarter

Hourly Weather History & Observations

Time (MDT) Temp. Windchill Dew Point Humidity Pressure Visibility Wind Dir Wind Speed Gust Speed Precip Events Conditions
12:15 AM 44.6 °F 38.4 °F 32.0 °F 61% 30.28 in 10.0 mi NW 12.7 mph - N/A   Clear
12:35 AM 44.6 °F 38.8 °F 32.0 °F 61% 30.28 in 10.0 mi NW 11.5 mph - N/A   Clear
12:55 AM 42.8 °F 36.6 °F 33.8 °F 70% 30.28 in 10.0 mi WNW 11.5 mph - N/A   Clear
1:15 AM 42.8 °F 37.0 °F 33.8 °F 70% 30.30 in 10.0 mi WNW 10.4 mph - N/A   Clear
1:35 AM 42.8 °F 36.6 °F 33.8 °F 70% 30.31 in 10.0 mi NW 11.5 mph - N/A   Clear
1:55 AM 42.8 °F 36.2 °F 33.8 °F 70% 30.31 in 10.0 mi NW 12.7 mph - N/A   Clear
2:15 AM 41.0 °F 34.7 °F 33.8 °F 76% 30.33 in 10.0 mi NW 10.4 mph - N/A   Clear
2:35 AM 41.0 °F 34.3 °F 33.8 °F 76% 30.33 in 10.0 mi NW 11.5 mph - N/A   Clear
2:55 AM 41.0 °F 34.7 °F 33.8 °F 76% 30.34 in 10.0 mi NW 10.4 mph - N/A   Clear
3:15 AM 39.2 °F 33.6 °F 33.8 °F 81% 30.34 in 10.0 mi NW 8.1 mph - N/A   Clear
3:35 AM 39.2 °F 33.0 °F 33.8 °F 81% 30.34 in 10.0 mi NW 9.2 mph - N/A   Clear
3:55 AM 39.2 °F 31.6 °F 33.8 °F 81% 30.34 in 10.0 mi NW 12.7 mph - N/A   Clear
4:15 AM 39.2 °F 32.0 °F 33.8 °F 81% 30.35 in 10.0 mi NW 11.5 mph - N/A   Clear
4:35 AM 39.2 °F 32.0 °F 33.8 °F 81% 30.35 in 10.0 mi NW 11.5 mph - N/A   Clear
4:55 AM 39.2 °F 33.6 °F 33.8 °F 81% 30.36 in 10.0 mi NNW 8.1 mph - N/A   Clear
5:15 AM 39.2 °F 32.5 °F 33.8 °F 81% 30.36 in 10.0 mi NW 10.4 mph - N/A   Clear
5:35 AM 39.2 °F 32.5 °F 33.8 °F 81% 30.36 in 10.0 mi NW 10.4 mph - N/A   Clear
5:55 AM 39.2 °F 33.0 °F 33.8 °F 81% 30.36 in 10.0 mi NW 9.2 mph - N/A   Clear
6:15 AM 37.4 °F 32.1 °F 33.8 °F 87% 30.37 in 10.0 mi NW 6.9 mph - N/A   Clear
6:35 AM 37.4 °F 30.8 °F 33.8 °F 87% 30.37 in 10.0 mi NW 9.2 mph - N/A   Clear
6:55 AM 39.2 °F 32.5 °F 33.8 °F 81% 30.38 in 10.0 mi NW 10.4 mph - N/A   Clear
7:15 AM 39.2 °F 31.6 °F 32.0 °F 75% 30.38 in 10.0 mi NW 12.7 mph - N/A   Clear
7:35 AM 39.2 °F 33.6 °F 32.0 °F 75% 30.39 in 10.0 mi NW 8.1 mph 17.3 mph N/A   Clear
7:55 AM 39.2 °F 33.0 °F 32.0 °F 75% 30.39 in 10.0 mi NW 9.2 mph - N/A   Clear
8:15 AM 39.2 °F 34.2 °F 32.0 °F 75% 30.41 in 10.0 mi NW 6.9 mph - N/A   Clear
8:35 AM 39.2 °F 35.0 °F 32.0 °F 75% 30.41 in 10.0 mi NNW 5.8 mph - N/A   Clear
8:55 AM 41.0 °F 36.4 °F 32.0 °F 70% 30.42 in 10.0 mi NW 6.9 mph - N/A   Clear
9:15 AM 42.8 °F 37.0 °F 32.0 °F 66% 30.41 in 10.0 mi NW 10.4 mph - N/A   Clear
9:35 AM 44.6 °F 38.8 °F 32.0 °F 61% 30.42 in 10.0 mi WNW 11.5 mph - N/A   Clear
9:55 AM 44.6 °F 39.2 °F 32.0 °F 61% 30.42 in 10.0 mi NW 10.4 mph - N/A   Clear
10:15 AM 46.4 °F 40.7 °F 32.0 °F 57% 30.42 in 10.0 mi NW 12.7 mph 17.3 mph N/A   Clear
10:35 AM 48.2 °F - 33.8 °F 58% 30.43 in 10.0 mi NW 11.5 mph - N/A   Clear
10:55 AM 48.2 °F - 32.0 °F 54% 30.43 in 10.0 mi NW 8.1 mph - N/A   Clear
11:15 AM 50.0 °F - 32.0 °F 50% 30.43 in 10.0 mi WNW 10.4 mph - N/A   Clear
11:35 AM 51.8 °F - 30.2 °F 44% 30.43 in 10.0 mi NW 6.9 mph - N/A   Clear
11:55 AM 53.6 °F - 26.6 °F 35% 30.43 in 10.0 mi WNW 6.9 mph - N/A   Clear
12:15 PM 53.6 °F - 28.4 °F 38% 30.43 in 10.0 mi WNW 5.8 mph - N/A   Clear
12:35 PM 53.6 °F - 26.6 °F 35% 30.43 in 10.0 mi West 4.6 mph - N/A   Clear
12:55 PM 55.4 °F - 26.6 °F 33% 30.43 in 10.0 mi WNW 5.8 mph - N/A   Clear
1:15 PM 55.4 °F - 24.8 °F 31% 30.43 in 10.0 mi NNW 6.9 mph - N/A   Clear
1:35 PM 57.2 °F - 24.8 °F 29% 30.43 in 10.0 mi WNW 8.1 mph - N/A   Clear
1:55 PM 57.2 °F - 26.6 °F 31% 30.42 in 10.0 mi WNW 4.6 mph - N/A   Clear
2:15 PM 57.2 °F - 24.8 °F 29% 30.42 in 10.0 mi West 5.8 mph - N/A   Clear
2:35 PM 57.2 °F - 26.6 °F 31% 30.42 in 10.0 mi NNW 4.6 mph - N/A   Clear
2:55 PM 57.2 °F - 26.6 °F 31% 30.41 in 10.0 mi North 5.8 mph - N/A   Clear
3:15 PM 57.2 °F - 26.6 °F 31% 30.41 in 10.0 mi West 4.6 mph - N/A   Clear
3:35 PM 57.2 °F - 24.8 °F 29% 30.41 in 10.0 mi East 4.6 mph - N/A   Clear
3:55 PM 59.0 °F - 24.8 °F 27% 30.42 in 10.0 mi Calm Calm - N/A   Clear
4:15 PM 59.0 °F - 23.0 °F 25% 30.42 in 10.0 mi NW 3.5 mph - N/A   Clear
4:35 PM 59.0 °F - 24.8 °F 27% 30.41 in 10.0 mi NNW 6.9 mph - N/A   Clear
4:55 PM 59.0 °F - 23.0 °F 25% 30.40 in 10.0 mi Calm Calm - N/A   Clear
5:15 PM 59.0 °F - 23.0 °F 25% 30.41 in 10.0 mi NNW 4.6 mph - N/A   Clear
5:35 PM 59.0 °F - 24.8 °F 27% 30.40 in 10.0 mi NW 4.6 mph - N/A   Clear
5:55 PM 59.0 °F - 24.8 °F 27% 30.40 in 10.0 mi Calm Calm - N/A   Clear
6:15 PM 59.0 °F - 24.8 °F 27% 30.39 in 10.0 mi WSW 4.6 mph - N/A   Clear
6:35 PM 57.2 °F - 26.6 °F 31% 30.39 in 10.0 mi WSW 8.1 mph - N/A   Clear
6:55 PM 55.4 °F - 28.4 °F 36% 30.40 in 10.0 mi WSW 6.9 mph - N/A   Clear
7:15 PM 55.4 °F - 26.6 °F 33% 30.40 in 10.0 mi WSW 4.6 mph - N/A   Clear
7:35 PM 53.6 °F - 28.4 °F 38% 30.40 in 10.0 mi West 4.6 mph - N/A   Clear
7:55 PM 51.8 °F - 28.4 °F 41% 30.41 in 10.0 mi WSW 3.5 mph - N/A   Clear
8:15 PM 48.2 °F - 32.0 °F 54% 30.41 in 10.0 mi Calm Calm - N/A   Clear
8:35 PM 46.4 °F 45.2 °F 32.0 °F 57% 30.42 in 10.0 mi SE 3.5 mph - N/A   Clear
8:55 PM 48.2 °F - 32.0 °F 54% 30.42 in 8.0 mi Calm Calm - N/A   Clear
9:15 PM 46.4 °F - 32.0 °F 57% 30.42 in 5.0 mi Calm Calm - N/A   Clear
9:35 PM 41.0 °F - 32.0 °F 70% 30.42 in 9.0 mi Calm Calm - N/A   Clear
9:55 PM 41.0 °F - 32.0 °F 70% 30.43 in 5.0 mi Calm Calm - N/A   Clear
10:15 PM 41.0 °F 38.0 °F 32.0 °F 70% 30.43 in 10.0 mi East 4.6 mph - N/A   Clear
10:35 PM 41.0 °F - 32.0 °F 70% 30.43 in 10.0 mi Calm Calm - N/A   Clear
10:55 PM 37.4 °F - 32.0 °F 81% 30.43 in 9.0 mi Calm Calm - N/A   Clear
11:15 PM 37.4 °F - 32.0 °F 81% 30.44 in 10.0 mi Calm Calm - N/A   Clear
11:35 PM 37.4 °F - 32.0 °F 81% 30.44 in 10.0 mi Calm Calm - N/A   Clear
11:55 PM 37.4 °F - 32.0 °F 81% 30.44 in 10.0 mi Calm Calm - N/A   Clear